Regional Weather Roundup
Issued by NWS Upton, NY

Current Version | Previous Version | Text Only | Print | Product List | Glossary Off
Versions: 1 2 3 4 5 6 7 8 9 10 11 12 13 14 15 16 17 18 19 20 21 22 23 24 25 26 27 28 29 30 31 32 33 34 35 36 37 38 39 40 41 42 43 44 45 46 47 48 49 50
000 ASUS41 KOKX 301008 RWROKX REGIONAL WEATHER ROUNDUP NATIONAL WEATHER SERVICE NEW YORK NY 600 AM EDT THU JUL 30 2015 NOTE: "FAIR" INDICATES FEW OR NO CLOUDS BELOW 12,000 FEET WITH NO SIGNIFICANT WEATHER AND/OR OBSTRUCTIONS TO VISIBILITY. NYZ071-072-176-178-NJZ106-104-301100- NEW YORK CITY METRO AREA CITY SKY/WX TMP DP RH WIND PRES REMARKS CENTRAL PARK PTCLDY 79 71 76 VRB3 29.93S LAGUARDIA APRT PTCLDY 79 71 76 SW8 29.90S KENNEDY INTL MOCLDY 76 71 85 S7 29.92S NEWARK/LIBERTY MOCLDY 77 73 87 S6 29.90S BRNX BOT. GARD N/A 79 70 73 S9 29.91F TETERBORO PTCLDY 78 71 79 S7 29.89S $$ NYZ177-179-078>081-301100- LONG ISLAND NEW YORK CITY SKY/WX TMP DP RH WIND PRES REMARKS FARMINGDALE PTCLDY 76 72 87 SW7 29.92S ISLIP PTCLDY 76 73 91 SW7 29.91S SHIRLEY CLEAR 76 73 91 SW7 29.93S WESTHAMPTON PTCLDY 76 74 93 SW8 29.94S MONTAUK POINT N/A 76 73 91 SW7 29.93S $$ NYZ052-065-067-301100- HUDSON VALLEY CITY SKY/WX TMP DP RH WIND PRES REMARKS WHITE PLAINS PTCLDY 76 72 87 S3 29.91S NEWBURGH NOT AVBL MONTGOMERY CLOUDY 72 70 93 CALM 29.90S POUGHKEEPSIE CLOUDY 71 68 90 CALM 29.88S ALBANY PTCLDY 74 66 76 S9 29.86S $$ NJZ001-105-106-008-010-013-015-019>022-104-301100- NEW JERSEY CITY SKY/WX TMP DP RH WIND PRES REMARKS NEWARK/LIBERTY MOCLDY 77 73 87 S6 29.90S TETERBORO PTCLDY 78 71 79 S7 29.89S CALDWELL PTCLDY 76 71 85 CALM 29.91S MORRISTOWN CLOUDY 77 72 83 S3 29.91S SOMERVILLE MOCLDY 72 69 90 CALM 29.89S SUSSEX MOCLDY 71 69 93 CALM 29.91S FOG ANDOVER N/A 71 70 96 CALM 29.92S TRENTON MOCLDY 76 72 87 S8 29.91S MILLVILLE CLOUDY 77 73 87 VRB3 29.94R ATLANTIC CITY PTCLDY 76 72 87 S9 29.94S WRIGHTSTOWN PTCLDY 72 72 99 S3 29.91S TOMS RIVER N/A 73 72 94 S6 29.94S BELMAR MOCLDY 73 66 78 SW6 29.93S $$ PAZ047>061-062-071-301100- EASTERN PENNSYLVANIA CITY SKY/WX TMP DP RH WIND PRES REMARKS PHILADELPHIA MOCLDY 78 72 81 S9 29.92S ALLENTOWN MOCLDY 75 71 87 CALM 29.91S SCRANTON PTCLDY 74 70 87 CALM 29.91S FOG $$ CTZ002-004>006-009-010-012-RIZ004-006-007-MAZ004-011-015-301100- SOUTHERN NEW ENGLAND IN CT CITY SKY/WX TMP DP RH WIND PRES REMARKS BRADLEY INTL PTCLDY 72 69 90 S7 29.88F FOG HARTFORD CLEAR 74 72 93 S5 29.88F DANBURY PTCLDY 75 69 81 CALM 29.92S WTRBRY/OXFORD CLEAR 73 64 73 CALM 29.94S BRIDGEPORT CLEAR 77 73 87 SW7 29.90F MERIDEN CLEAR 71 68 90 CALM 29.90S FOG NEW HAVEN PTCLDY 75 72 90 VRB3 29.91S CHESTER FAIR 73 72 94 W6 29.93S FOG GROTON CLEAR 75 73 93 W5 29.90F WILLIMANTIC CLEAR 68 65 90 CALM 29.91S FOG IN RI CITY SKY/WX TMP DP RH WIND PRES REMARKS PROVIDENCE PTCLDY 74 71 91 SW6 29.90S BLOCK ISLAND N/A 72 72 100 SW15G21 29.93S WESTERLY PTCLDY 74 72 93 SW3 29.92S FOG IN MA CITY SKY/WX TMP DP RH WIND PRES REMARKS BOSTON PTCLDY 74 67 78 SW7 29.88S WORCESTER CLEAR 70 65 84 W8 29.92F WESTFIELD CLEAR 67 65 93 CALM 29.89S FOG PROVINCETOWN CLEAR 72 64 78 SW8 29.89S NANTUCKET CLOUDY 72 70 93 SW10 29.92S FOG $$ ANZ330-335-338-340-345-350-353-355-301100- COASTAL MARINE OBSERVATIONS STATION/POSITION TIME SKY/WX TEMP WIND PRES VSBY WAVE AIR SEA DIR/SP/G HT/PER (UTC) (F) (DEG/KT/KT) (MB) (MI) (FT/S) NY HARB ENTRANCE 0950 77 76 210/ 12/ 14 1012.7 3/ 9 4S FIRE IS NOT AVBL 20S FIRE ISLAND 0950 76 74 230/ 14/ 16 1013.1 4/ 5 GREAT SOUTH BAY 0900 77 81 240/ 12/ 16 N/A 23SW MTP 0950 75 74 230/ 14/ 16 1012.9 4/ 9 HUDSON CANYON NOT AVBL KINGS POINT 0900 77 73 N/A EXECUTION ROCKS 0900 76 180/ 4/ 6 N/A CENTRAL LI SOUND NOT AVBL EASTERN LI SOUND 0900 72 68 270/ 2/ 2 N/A ROBBINS REEF 0900 78 N/A $$ >>>>>>>>>>>>>>>>>>>>>>>>>>>> KEY <<<<<<<<<<<<<<<<<<<<<<<<<<< > < > SKY/WX - SKY CONDITION/PRESENT WEATHER < > TMP - TEMPERATURE IN FAHRENHEIT < > DP - DEWPOINT IN FAHRENHEIT < > RH - RELATIVE HUMIDITY IN PERCENT < > WIND - DIRECTION AND SPEED IN MPH < > PRES - MEAN SEA LEVEL PRESSURE IN INCHES OF HG < > WCI - WIND CHILL INDEX < > VSB - VISIBILITY IN MILES < > HX - HEAT INDEX < > TC - TEMPERATURE IN CELSIUS < > VRB - VARIABLE WIND DIRECTION < > < >>>>>>>>>>>>>>>>>>>>>>>>>>>> KEY <<<<<<<<<<<<<<<<<<<<<<<<<<<

USA.gov is the U.S. government's official web portal to all federal, state and local government web resources and services.